Wind_Speed
16 4 7 14 13 13 10 12 8 9 10 9 13 10 8 8 11 10 16 19 21 23 20 23 24 24 23 24 29 31 29 27 27 29 27 30 21 17 15 14 17 31 33 24
6 9 13 18 13 9 9 12 8 9 11 12 12 12 9 8 5 10 15 26 31 25 33 26 27 27 28 30 27 24 20 25 28 28 30 30 33 33 14 13 13 7 18 27
9 10 13 13 9 7 7 11 7 9 15 12 8 12 13 8 14 22 29 33 38 35 28 32 34 35 34 31 28 26 23 20 24 31 32 29 28 31 36 29 24 22 19 17
9 10 13 12 8 5 6 9 12 12 7 4 5 12 15 8 15 19 29 32 37 43 39 29 40 37 30 23 17 14 17 21 18 16 25 33 35 37 37 44 32 32 25 31
12 11 11 14 13 9 9 8 10 10 7 7 7 8 17 8 11 16 18 31 33 37 41 25 32 34 23 17 12 7 11 15 18 17 19 21 22 27 29 32 43 34 30 29
13 23 12 15 18 17 16 7 8 5 4 10 13 10 17 14 6 8 17 32 25 21 24 25 29 25 20 17 12 12 17 20 16 19 19 21 21 24 25 31 28 33 38 32
17 19 19 19 21 19 13 8 6 7 5 14 13 13 15 7 4 7 10 23 25 23 25 23 23 26 25 20 13 15 15 14 16 16 17 19 20 20 22 23 25 35 40 40
12 12 9 11 13 11 10 17 9 12 6 13 12 9 9 8 10 12 11 17 7 13 18 20 23 22 24 20 16 20 24 18 16 18 20 19 17 20 19 21 22 25 29 36
9 13 11 14 17 13 8 5 7 4 13 3 4 9 13 21 5 8 14 15 2 13 10 6 17 31 24 16 18 27 27 25 23 21 23 24 24 20 19 20 20 21 24 26
7 17 6 11 16 11 8 6 4 2 4 7 7 9 6 5 5 8 3 7 22 11 11 10 9 17 17 14 15 17 22 25 26 25 22 22 20 20 23 20 20 21 23 24
14 9 13 10 8 7 8 6 3 3 4 4 4 6 3 3 5 7 6 14 21 22 7 15 20 20 19 21 24 22 26 29 29 28 25 24 23 23 23 27 22 24 26 26
16 11 14 12 10 11 8 5 5 0 3 2 4 9 6 5 2 3 7 12 16 21 33 25 20 21 20 26 23 20 21 25 29 28 28 28 27 23 25 28 26 27 25 25
5 3 5 7 4 4 3 2 5 5 3 8 5 4 9 19 7 15 11 15 12 14 40 26 21 32 19 20 24 23 23 24 21 25 29 30 25 26 26 29 28 27 27 28
8 6 8 7 12 10 13 12 12 8 4 6 7 12 21 16 10 14 17 17 14 17 40 30 22 44 46 25 23 22 21 21 20 23 29 27 28 29 30 31 28 29 31 31
2 1 5 9 14 16 15 21 18 18 11 11 18 16 17 11 14 10 25 25 25 29 35 35 39 30 25 15 16 18 21 24 25 25 27 26 29 34 34 34 33 34 35 34
3 3 5 12 14 17 19 17 17 14 15 17 17 18 2 11 14 14 17 11 7 12 14 24 9 5 6 2 9 19 19 16 22 26 24 30 31 35 38 37 35 32 33 39
5 3 3 9 8 12 10 12 11 10 15 10 6 6 9 7 8 12 16 18 19 11 16 18 25 25 21 17 18 23 27 27 25 23 23 25 29 33 35 36 36 35 37 39
7 4 3 6 6 3 8 8 1 8 6 1 9 12 13 11 18 22 22 18 18 18 19 22 27 32 32 28 28 30 30 34 37 39 40 39 39 40 41 41 44 46 43 41
2 4 1 1 2 10 9 5 3 5 3 7 4 12 16 25 25 17 19 29 25 24 24 25 26 29 31 34 33 34 38 41 43 45 44 44 43 42 44 44 44 46 47 46
6 5 4 1 2 3 4 8 16 7 6 15 13 11 13 20 10 10 30 35 38 38 35 34 38 37 35 34 33 36 41 42 44 41 35 33 37 44 48 50 52 51 53 51
3 2 2 3 4 5 11 13 18 3 6 25 26 23 22 12 15 34 37 41 41 38 37 40 39 38 34 36 37 44 47 46 47 43 43 45 50 49 48 49 48 49 51 47
1 1 0 1 3 4 13 5 3 7 16 22 25 25 27 31 32 35 36 38 39 39 39 34 38 39 41 43 43 45 45 44 43 47 52 50 50 51 50 50 51 50 48 48
3 2 2 3 4 8 13 4 10 17 20 23 29 35 37 36 39 39 46 43 43 43 43 44 47 44 37 39 42 45 46 44 42 45 49 49 52 52 48 51 54 52 52 47
4 7 2 5 4 14 26 16 32 33 28 33 36 33 39 43 40 41 37 39 38 41 38 37 40 39 42 38 41 48 53 52 48 50 57 58 59 61 66 70 65 62 57 50
4 6 6 5 4 23 1 29 28 33 34 35 33 36 39 34 37 36 36 38 40 38 36 36 36 38 42 46 44 40 38 35 40 45 54 60 57 49 54 67 67 65 62 56
4 1 2 4 15 9 23 37 39 37 36 41 41 44 40 33 36 37 37 37 38 39 39 38 39 38 37 37 41 37 30 32 41 51 52 51 14 6 8 37 47 50 52 49
Wind_Direction
278 210 239 235 234 236 255 269 279 310 326 335 304 295 295 266 239 270 288 292 288 244 229 207 218 237 233 224 208 210 212 206 211 219 221 226 202 257 237 216 233 237 237 236
260 252 242 247 260 272 288 296 300 310 315 299 296 295 288 275 242 275 277 282 274 267 245 217 210 214 218 219 217 211 206 199 204 209 213 219 220 216 257 247 235 222 229 234
242 266 279 268 276 254 277 296 284 267 271 272 293 290 293 276 277 280 277 263 260 258 250 219 209 214 209 207 207 215 222 217 214 214 212 212 212 218 216 241 236 250 267 268
258 266 285 298 287 295 260 271 285 294 331 281 3 301 289 289 295 291 277 276 253 245 247 222 206 198 194 190 192 203 216 224 233 235 222 224 227 220 224 237 253 259 270 264
275 290 299 298 295 278 245 242 277 288 288 315 300 281 282 270 264 272 277 266 259 232 234 223 198 179 169 180 193 224 250 244 244 243 248 250 244 245 243 227 234 245 242 239
273 276 277 265 275 278 287 263 254 258 273 270 264 251 271 275 274 307 321 307 245 149 148 146 159 165 179 180 208 236 229 243 258 257 251 252 257 258 256 249 233 233 256 255
245 246 250 257 253 256 254 270 272 276 261 259 255 255 253 310 259 250 305 345 153 140 153 158 171 179 186 199 222 214 224 234 269 272 262 259 259 255 259 253 252 244 243 248
273 287 270 298 315 300 216 230 244 251 238 267 274 256 267 229 216 248 284 235 197 147 154 175 189 206 217 217 228 218 213 229 229 256 271 275 266 271 265 263 260 253 253 249
287 282 309 306 309 317 317 290 246 281 283 289 262 277 283 266 280 237 214 286 1 165 182 192 202 202 202 206 213 214 221 221 229 237 248 259 274 271 278 273 272 265 257 256
314 310 261 292 302 297 292 272 280 208 244 243 233 248 242 3 335 8 8 310 217 182 168 205 192 188 198 226 224 221 232 237 243 239 249 251 255 274 285 282 285 281 272 266
324 300 300 300 283 294 328 326 314 41 320 286 278 269 111 50 30 358 21 8 352 353 231 217 222 237 248 246 238 240 247 245 238 241 243 231 237 254 271 279 280 279 281 280
282 276 287 270 277 291 293 67 73 282 301 298 263 260 330 102 150 100 320 297 298 302 333 315 315 234 241 231 223 238 256 252 243 244 237 226 231 243 259 273 282 280 279 277
20 301 307 318 324 343 82 211 161 165 211 236 278 270 347 308 188 251 220 249 260 274 302 308 300 312 235 244 250 250 249 248 242 230 228 223 244 251 251 252 265 281 274 276
268 244 208 257 274 291 297 303 291 187 192 264 245 265 282 284 255 229 233 224 228 255 272 260 251 255 271 242 245 238 238 237 239 246 238 230 249 247 239 255 261 273 274 272
89 302 309 292 301 293 269 270 283 282 271 229 257 251 261 318 337 295 229 222 224 234 239 251 249 267 256 240 239 244 249 251 250 247 237 247 251 243 246 250 255 263 267 277
341 241 261 265 271 275 281 286 281 279 295 286 264 261 100 335 321 355 353 349 20 323 320 333 345 319 294 15 306 272 271 265 247 239 247 254 253 240 249 252 256 261 266 276
255 228 313 284 285 304 299 283 305 315 307 320 330 306 330 328 329 318 327 321 317 320 310 322 328 335 324 312 302 293 286 277 265 263 261 266 261 249 242 249 257 255 260 274
232 251 233 281 334 274 252 62 186 193 296 45 353 354 321 299 301 305 312 342 352 339 334 325 311 312 305 299 294 292 288 283 281 280 278 271 262 254 252 250 252 258 263 266
130 183 285 166 231 273 295 12 343 43 48 72 47 317 323 336 328 311 318 332 324 318 315 309 299 295 296 296 298 293 288 286 280 273 269 266 267 254 248 246 244 249 259 261
77 59 141 341 232 265 37 14 329 273 243 7 1 333 325 327 311 301 321 319 316 318 313 307 302 298 291 291 294 292 282 279 278 271 264 266 263 256 249 243 244 251 254 255
194 207 199 230 253 287 24 5 332 301 324 334 337 336 336 321 306 310 312 309 306 303 300 298 296 288 288 290 294 290 283 278 276 276 274 273 272 268 257 247 245 241 243 243
260 303 115 255 251 289 22 330 24 316 324 327 324 320 313 308 306 308 307 305 303 301 303 298 295 297 293 293 292 281 276 277 277 277 277 273 267 259 252 248 243 236 235 239
28 112 223 205 245 66 8 59 10 346 327 325 320 317 313 310 306 305 302 298 295 294 293 294 294 291 289 288 290 283 284 284 283 280 277 271 266 254 248 241 237 234 234 230
288 42 342 354 349 2 336 350 340 336 323 318 316 313 317 304 305 305 300 301 299 300 296 293 295 296 294 292 286 286 290 290 288 280 277 275 266 258 250 243 236 230 228 231
6 343 340 278 338 338 207 324 316 316 315 316 310 315 310 302 304 306 303 303 301 299 295 296 295 293 290 294 297 301 302 293 286 284 284 285 280 274 256 234 223 220 222 224
358 72 322 276 323 301 294 311 319 315 317 322 313 318 315 308 303 307 303 302 299 298 300 299 299 299 302 306 307 303 299 295 296 296 299 295 300 341 158 181 191 204 207 215
Height
1480 1487 1490 1482 1475 1473 1471 1471 1471 1461 1457 1462 1461 1459 1452 1447 1447 1450 1449 1451 1453 1452 1454 1457 1458 1461 1464 1469 1473 1476 1477 1479 1481 1483 1486 1487 1482 1504 1503 1507 1506 1506 1509 1509
1482 1485 1471 1466 1464 1465 1466 1469 1470 1461 1458 1460 1458 1456 1449 1445 1445 1445 1446 1446 1447 1450 1449 1449 1451 1454 1457 1461 1467 1471 1472 1476 1478 1481 1483 1483 1485 1486 1501 1501 1506 1501 1503 1505
1480 1470 1462 1461 1461 1463 1465 1470 1468 1468 1457 1454 1456 1456 1449 1442 1440 1440 1439 1440 1440 1440 1443 1443 1445 1447 1451 1455 1459 1464 1468 1472 1475 1479 1480 1482 1485 1488 1489 1500 1497 1499 1500 1501
1470 1462 1460 1460 1460 1459 1469 1460 1458 1458 1465 1478 1460 1477 1455 1445 1441 1438 1435 1434 1429 1430 1433 1436 1438 1441 1446 1452 1457 1460 1464 1468 1472 1475 1477 1478 1480 1482 1483 1482 1489 1491 1488 1499
1468 1463 1463 1462 1458 1452 1458 1452 1457 1457 1462 1464 1466 1477 1445 1444 1440 1434 1428 1423 1420 1418 1423 1427 1431 1438 1445 1450 1454 1459 1463 1466 1468 1471 1473 1473 1474 1475 1478 1476 1480 1482 1490 1495
1462 1457 1457 1453 1449 1448 1446 1450 1452 1454 1462 1473 1460 1467 1449 1442 1438 1430 1424 1416 1412 1413 1417 1423 1431 1438 1442 1446 1451 1455 1459 1461 1464 1465 1467 1468 1467 1470 1470 1470 1469 1474 1483 1483
1455 1452 1447 1445 1448 1443 1445 1457 1473 1479 1480 1466 1449 1449 1439 1431 1428 1426 1422 1412 1402 1408 1414 1422 1429 1434 1439 1442 1445 1449 1452 1456 1458 1459 1460 1461 1463 1464 1465 1466 1466 1468 1472 1469
1457 1459 1442 1438 1441 1443 1440 1446 1460 1473 1480 1458 1443 1448 1434 1422 1420 1417 1419 1421 1418 1414 1416 1421 1426 1429 1433 1437 1440 1443 1447 1450 1452 1454 1455 1456 1457 1458 1459 1460 1460 1461 1462 1461
1454 1448 1438 1437 1435 1439 1438 1446 1435 1448 1452 1463 1456 1436 1423 1413 1414 1413 1412 1423 1419 1416 1418 1420 1424 1425 1429 1433 1436 1439 1442 1444 1445 1447 1448 1450 1451 1452 1454 1454 1454 1454 1454 1457
1443 1448 1436 1434 1434 1431 1435 1431 1450 1446 1467 1470 1452 1437 1434 1418 1414 1409 1412 1418 1419 1418 1418 1421 1425 1426 1428 1430 1431 1432 1434 1436 1438 1440 1442 1444 1445 1446 1445 1445 1446 1446 1446 1448
1443 1445 1442 1436 1439 1440 1440 1444 1445 1455 1465 1457 1455 1439 1414 1419 1417 1417 1414 1417 1424 1422 1419 1417 1420 1422 1422 1424 1425 1427 1428 1428 1430 1432 1434 1436 1438 1438 1439 1439 1439 1440 1441 1441
1444 1445 1446 1443 1435 1432 1433 1449 1456 1466 1463 1460 1456 1442 1418 1415 1416 1414 1414 1413 1416 1418 1419 1419 1419 1416 1416 1417 1419 1420 1421 1421 1422 1424 1426 1428 1430 1432 1433 1433 1432 1433 1434 1436
1446 1449 1458 1447 1438 1433 1441 1444 1447 1456 1468 1458 1454 1438 1416 1421 1409 1410 1412 1412 1414 1416 1417 1416 1409 1413 1411 1411 1412 1412 1413 1413 1415 1416 1417 1420 1422 1423 1425 1426 1428 1428 1426 1428
1440 1443 1452 1460 1450 1446 1445 1439 1437 1446 1454 1451 1440 1430 1424 1414 1412 1407 1407 1407 1407 1415 1417 1415 1417 1412 1409 1404 1404 1405 1405 1406 1407 1409 1410 1411 1412 1412 1414 1415 1417 1420 1422 1420
1445 1451 1450 1446 1442 1441 1441 1435 1430 1431 1429 1438 1426 1422 1411 1414 1413 1404 1398 1401 1399 1400 1400 1402 1400 1402 1398 1396 1397 1399 1399 1400 1401 1401 1401 1403 1405 1404 1404 1404 1406 1409 1412 1412
1445 1454 1450 1446 1438 1433 1427 1422 1421 1420 1421 1414 1409 1409 1415 1414 1410 1401 1400 1401 1399 1401 1403 1403 1397 1391 1392 1390 1395 1392 1392 1393 1394 1392 1392 1393 1393 1395 1395 1395 1395 1395 1398 1400
1446 1450 1453 1445 1436 1432 1436 1418 1417 1420 1428 1421 1422 1421 1412 1410 1404 1400 1396 1398 1398 1396 1394 1391 1392 1392 1389 1387 1388 1388 1386 1385 1387 1385 1384 1386 1387 1386 1385 1386 1385 1385 1386 1390
1441 1444 1447 1448 1440 1449 1420 1416 1415 1423 1417 1419 1419 1415 1415 1408 1403 1399 1394 1397 1397 1395 1392 1385 1384 1386 1385 1382 1380 1378 1378 1377 1375 1374 1374 1375 1376 1376 1375 1375 1374 1374 1375 1377
1432 1438 1451 1455 1453 1428 1414 1421 1421 1419 1423 1420 1424 1419 1411 1404 1400 1396 1394 1393 1392 1389 1387 1384 1383 1380 1376 1373 1370 1369 1367 1364 1361 1359 1358 1359 1360 1360 1361 1361 1362 1363 1364 1365
1434 1439 1450 1450 1454 1445 1429 1421 1419 1417 1417 1418 1417 1415 1411 1405 1402 1393 1391 1389 1383 1379 1377 1374 1372 1369 1365 1363 1361 1357 1354 1351 1348 1346 1344 1344 1345 1346 1345 1346 1346 1349 1352 1354
1438 1441 1450 1449 1452 1428 1428 1425 1418 1423 1423 1415 1413 1410 1407 1405 1402 1392 1387 1381 1379 1374 1370 1365 1362 1357 1354 1350 1347 1343 1340 1334 1331 1329 1327 1326 1327 1327 1329 1330 1333 1334 1336 1340
1434 1438 1440 1439 1436 1444 1430 1427 1428 1431 1423 1419 1413 1409 1404 1399 1392 1387 1382 1375 1368 1363 1358 1355 1348 1344 1342 1339 1335 1325 1319 1318 1316 1313 1310 1307 1306 1306 1308 1310 1315 1319 1321 1324
1440 1435 1438 1436 1433 1425 1428 1426 1428 1425 1420 1414 1409 1402 1396 1388 1382 1377 1370 1363 1356 1351 1346 1341 1335 1330 1328 1324 1320 1310 1305 1303 1299 1294 1287 1283 1281 1282 1284 1286 1291 1297 1304 1308
1430 1428 1430 1430 1419 1422 1421 1422 1419 1417 1414 1409 1404 1396 1390 1382 1375 1367 1359 1353 1348 1344 1337 1330 1326 1322 1314 1311 1305 1299 1292 1287 1281 1271 1263 1257 1250 1245 1247 1255 1264 1273 1283 1291
1436 1431 1435 1429 1423 1422 1418 1420 1418 1413 1407 1402 1395 1389 1382 1373 1365 1360 1350 1345 1339 1333 1327 1323 1319 1313 1305 1299 1292 1284 1276 1269 1262 1252 1242 1232 1224 1215 1204 1209 1227 1244 1261 1275
1438 1439 1440 1435 1433 1433 1424 1415 1411 1407 1400 1393 1384 1375 1372 1366 1357 1351 1343 1337 1328 1321 1316 1313 1307 1302 1296 1289 1280 1269 1266 1260 1252 1239 1225 1215 1211 1200 1178 1185 1211 1235 1253 1267